Date String (YYYY-MM-DD hh:mm:ss) UTC,Instrument flags,absolute air pressure of the measurement (hPa),sample flow rate (lpm),inlet stack bypass flow (lpm),air temperature of the measurement (°C),ambient temperature measured by the external sensor (°C),aerosol sample conditioner tube jacket temperature (°C),OPC LED temperature (°C),internal box temperature (°C),relative humidity of the measurement (%),span deviation,mass concentration of particles derived from Lorenz-Mie calculation of OPC scattering (μg/m³),mass concentration of particles derived from Lorenz-Mie calculation of OPC scattering (μg/m³),mass concentration of particles derived from Lorenz-Mie calculation of OPC scattering (μg/m³)
DateTimeUTC,F1_M11,P_M11,Q1_M11,Q2_M11,T1_M11,T2_M11,T3_M11,T4_M11,T5_M11,U1_M11,ZSPAN_M11,X0_M11,X2_M11,X1_M11
2023-10-20 02:00:00,SystemResetWarning,0833.8,4.99,000.00,028.2,026.8,000.0,036.7,030.0,12.6,0000.0,0012.51,0002.84,0001.21
2023-10-20 02:01:00,SystemResetWarning,0833.8,4.99,000.00,028.2,026.9,000.0,036.7,030.1,12.5,0000.0,0012.56,0002.88,0001.21
2023-10-20 02:02:00,SystemResetWarning,0833.8,5.00,000.00,028.3,027.1,000.0,036.7,030.1,12.4,0000.0,0012.07,0002.91,0001.20
2023-10-20 02:03:00,SystemResetWarning,0833.8,5.00,000.00,028.3,027.2,000.0,036.7,030.2,12.1,0000.0,0013.13,0002.94,0001.19
2023-10-20 02:04:00,SystemResetWarning,0833.8,5.00,000.00,028.3,027.2,000.0,036.7,030.2,12.0,0000.0,0013.98,0002.87,0001.17
2023-10-20 02:05:00,SystemResetWarning,0833.8,5.00,000.00,028.4,027.3,000.0,036.8,030.2,11.9,0000.0,0013.47,0002.77,0001.15
2023-10-20 02:06:00,SystemResetWarning,0833.8,5.00,000.00,028.4,027.4,000.0,036.8,030.3,11.9,0000.0,0013.80,0002.75,0001.14
2023-10-20 02:07:00,SystemResetWarning,0833.8,5.00,000.00,028.5,027.2,000.0,036.8,030.3,11.6,0000.0,0013.56,0002.73,0001.14
2023-10-20 02:08:00,SystemResetWarning,0833.8,4.99,000.00,028.4,025.4,000.0,036.7,030.1,11.4,0000.0,0013.81,0002.69,0001.15
2023-10-20 02:09:00,SystemResetWarning,0833.8,5.01,000.00,028.3,024.4,000.0,036.7,029.9,11.1,0000.0,0014.55,0002.73,0001.15
2023-10-20 02:10:00,SystemResetWarning,0833.8,5.02,000.00,028.2,024.5,000.0,036.7,029.8,10.8,0000.0,0014.01,0002.77,0001.16
2023-10-20 02:11:00,SystemResetWarning,0833.8,5.00,000.00,028.2,024.8,000.0,036.7,029.7,10.9,0000.0,0013.22,0002.71,0001.16
2023-10-20 02:12:00,SystemResetWarning,0833.8,5.00,000.00,028.1,025.2,000.0,036.7,029.7,11.1,0000.0,0013.13,0002.61,0001.13
2023-10-20 02:13:00,SystemResetWarning,0833.9,5.00,000.00,028.1,025.6,000.0,036.7,029.8,11.0,0000.0,0013.51,0002.64,0001.13
2023-10-20 02:14:00,SystemResetWarning,0833.8,5.00,000.00,028.1,025.9,000.0,036.7,029.8,10.8,0000.0,0012.70,0002.61,0001.12
2023-10-20 02:15:00,SystemResetWarning,0833.9,5.00,000.00,028.1,026.2,000.0,036.7,029.9,11.0,0000.0,0011.05,0002.60,0001.12
2023-10-20 02:16:00,SystemResetWarning,0833.8,5.00,000.00,028.2,026.4,000.0,036.7,029.9,11.1,0000.0,0011.10,0002.68,0001.12
2023-10-20 02:17:00,SystemResetWarning,0833.8,5.00,000.00,028.2,026.6,000.0,036.7,030.0,10.9,0000.0,0011.33,0002.65,0001.12
2023-10-20 02:18:00,SystemResetWarning,0833.8,5.00,000.00,028.2,026.7,000.0,036.7,030.0,10.7,0000.0,0010.90,0002.71,0001.10
2023-10-20 02:19:00,SystemResetWarning,0833.8,5.00,000.00,028.2,026.9,000.0,036.7,030.1,10.7,0000.0,0010.93,0002.80,0001.10
2023-10-20 02:20:00,SystemResetWarning,0833.8,5.00,000.00,028.3,027.0,000.0,036.7,030.1,11.0,0000.0,0009.79,0002.82,0001.10
2023-10-20 02:21:00,SystemResetWarning,0833.8,5.00,000.00,028.3,027.1,000.0,036.7,030.1,10.6,0000.0,0009.07,0002.80,0001.08
2023-10-20 02:22:00,SystemResetWarning,0833.8,5.00,000.00,028.3,027.2,000.0,036.8,030.2,10.2,0000.0,0009.42,0002.78,0001.07
2023-10-20 02:23:00,SystemResetWarning,0833.9,5.00,000.00,028.4,027.3,000.0,036.8,030.2,10.4,0000.0,0009.13,0002.72,0001.06
2023-10-20 02:24:00,SystemResetWarning,0833.9,4.98,000.00,028.4,027.3,000.0,036.8,030.2,10.2,0000.0,0009.31,0002.67,0001.05
2023-10-20 02:25:00,SystemResetWarning,0833.9,4.99,000.00,028.4,027.4,000.0,036.8,030.2,10.2,0000.0,0008.88,0002.60,0001.05
2023-10-20 02:26:00,SystemResetWarning,0833.8,5.01,000.00,028.5,027.4,000.0,036.8,030.3,10.2,0000.0,0008.91,0002.63,0001.04
2023-10-20 02:27:00,SystemResetWarning,0833.9,4.99,000.00,028.5,026.8,000.0,036.8,030.3,10.2,0000.0,0009.20,0002.60,0001.05
2023-10-20 02:28:00,SystemResetWarning,0833.9,5.00,000.00,028.5,024.9,000.0,036.8,030.1,10.4,0000.0,0009.14,0002.56,0001.06
2023-10-20 02:29:00,SystemResetWarning,0833.9,5.01,000.00,028.4,024.4,000.0,036.7,029.9,10.4,0000.0,0009.46,0002.53,0001.07
2023-10-20 02:30:00,SystemResetWarning,0833.8,5.01,000.00,028.3,024.5,000.0,036.7,029.7,10.8,0000.0,0009.58,0002.44,0001.07
2023-10-20 02:31:00,SystemResetWarning,0833.9,5.01,000.00,028.2,024.9,000.0,036.7,029.7,10.8,0000.0,0010.65,0002.49,0001.08
2023-10-20 02:32:00,SystemResetWarning,0833.8,5.00,000.00,028.2,025.3,000.0,036.7,029.8,10.6,0000.0,0010.60,0002.47,0001.07
2023-10-20 02:33:00,SystemResetWarning,0833.9,5.00,000.00,028.2,025.6,000.0,036.7,029.8,10.5,0000.0,0009.92,0002.38,0001.07
2023-10-20 02:34:00,SystemResetWarning,0833.8,5.00,000.00,028.2,026.0,000.0,036.7,029.9,10.4,0000.0,0010.08,0002.41,0001.07
2023-10-20 02:35:00,SystemResetWarning,0833.9,4.99,000.00,028.2,026.2,000.0,036.7,029.9,10.3,0000.0,0009.77,0002.39,0001.06
2023-10-20 02:36:00,SystemResetWarning,0833.8,5.00,000.00,028.2,026.4,000.0,036.7,030.0,10.3,0000.0,0009.90,0002.30,0001.05
2023-10-20 02:37:00,SystemResetWarning,0833.9,5.00,000.00,028.2,026.6,000.0,036.7,030.0,10.3,0000.0,0010.01,0002.25,0001.05
2023-10-20 02:38:00,SystemResetWarning,0833.9,5.00,000.00,028.2,026.8,000.0,036.7,030.0,10.3,0000.0,0009.79,0002.18,0001.04
2023-10-20 02:39:00,SystemResetWarning,0833.8,5.00,000.00,028.3,026.9,000.0,036.7,030.1,10.4,0000.0,0009.49,0002.13,0001.03
2023-10-20 02:40:00,SystemResetWarning,0833.8,5.00,000.00,028.3,027.0,000.0,036.8,030.1,10.5,0000.0,0010.38,0002.09,0001.01
2023-10-20 02:41:00,SystemResetWarning,0833.9,5.01,000.00,028.3,027.1,000.0,036.8,030.1,10.6,0000.0,0010.66,0002.02,0001.00
2023-10-20 02:42:00,SystemResetWarning,0833.9,5.00,000.00,028.4,027.2,000.0,036.8,030.2,10.6,0000.0,0010.06,0001.96,0000.98
2023-10-20 02:43:00,SystemResetWarning,0833.8,5.00,000.00,028.4,027.2,000.0,036.8,030.2,10.5,0000.0,0010.34,0001.91,0000.96
2023-10-20 02:44:00,SystemResetWarning,0833.8,4.99,000.00,028.4,027.3,000.0,036.8,030.2,10.3,0000.0,0010.92,0001.88,0000.94
2023-10-20 02:45:00,SystemResetWarning,0833.8,5.00,000.00,028.5,027.4,000.0,036.8,030.2,10.2,0000.0,0010.90,0001.85,0000.91
2023-10-20 02:46:00,SystemResetWarning,0833.8,5.00,000.00,028.5,027.4,000.0,036.9,030.3,10.0,0000.0,0010.93,0001.81,0000.89
2023-10-20 02:47:00,SystemResetWarning,0833.9,4.99,000.00,028.5,027.4,000.0,036.9,030.3,10.0,0000.0,0010.62,0001.74,0000.87
2023-10-20 02:48:00,SystemResetWarning,0833.8,4.99,000.00,028.6,027.5,000.0,036.9,030.4,9.9,0000.0,0010.45,0001.67,0000.84
2023-10-20 02:49:00,SystemResetWarning,0833.9,5.00,000.00,028.6,026.6,000.0,036.9,030.3,9.9,0000.0,0010.25,0001.62,0000.81
2023-10-20 02:50:00,SystemResetWarning,0833.8,5.01,000.00,028.5,024.7,000.0,036.8,030.1,10.0,0000.0,0010.24,0001.56,0000.78
2023-10-20 02:51:00,SystemResetWarning,0833.9,5.01,000.00,028.4,024.3,000.0,036.8,030.0,10.3,0000.0,0009.35,0001.50,0000.75
2023-10-20 02:52:00,SystemResetWarning,0833.8,5.00,000.00,028.3,024.5,000.0,036.8,029.8,10.7,0000.0,0008.75,0001.44,0000.72
2023-10-20 02:53:00,SystemResetWarning,0833.8,5.00,000.00,028.2,024.9,000.0,036.8,029.7,10.8,0000.0,0008.25,0001.38,0000.71
2023-10-20 02:54:00,SystemResetWarning,0833.8,5.01,000.00,028.2,025.3,000.0,036.8,029.8,10.4,0000.0,0007.68,0001.32,0000.70
2023-10-20 02:55:00,SystemResetWarning,0833.8,5.00,000.00,028.2,025.7,000.0,036.8,029.8,10.9,0000.0,0007.88,0001.29,0000.69
2023-10-20 02:56:00,SystemResetWarning,0833.8,5.00,000.00,028.2,026.0,000.0,036.8,029.9,11.0,0000.0,0008.73,0001.25,0000.68
2023-10-20 02:57:00,SystemResetWarning,0833.8,5.01,000.00,028.2,026.3,000.0,036.8,029.9,11.1,0000.0,0009.04,0001.23,0000.67
2023-10-20 02:58:00,SystemResetWarning,0833.8,5.00,000.00,028.2,026.5,000.0,036.8,030.0,11.2,0000.0,0008.75,0001.23,0000.67
2023-10-20 02:59:00,SystemResetWarning,0833.9,5.00,000.00,028.2,026.6,000.0,036.8,030.0,11.3,0000.0,0008.46,0001.19,0000.66
